Change the Weather History Date:

Wednesday, December 4, 2013

  Actual Average Record
Temperature  
Mean Temperature 62 °F -  
Max Temperature 66 °F 62 °F 77 °F (2006)
Min Temperature 57 °F 47 °F 43 °F (1996)
Degree Days  
Heating Degree Days 4    
Growing Degree Days 12 (Base 50)    
Moisture  
Dew Point 40 °F    
Average Humidity 45    
Maximum Humidity 65    
Minimum Humidity 34    
Precipitation  
Precipitation 0.00 in - - ()
Sea Level Pressure  
Sea Level Pressure 29.92 in    
Wind  
Wind Speed 11 mph (WSW)    
Max Wind Speed 16 mph    
Max Gust Speed 20 mph    
Visibility 10 miles    
Events      
Averages and records for this station are not official NWS values.
T = Trace of Precipitation, MM = Missing Value Source: NWS Daily Summary

Daily Weather History Graph

Daily Weather History Graph

Search for Another Location

Airport or City:

Trip Planner

Search our weather history database for the weather conditions in past years. The results will help you decide how hot, cold, wet, or windy it might be!

Date:

Astronomy

Dec. 04, 2013 Rise Set
Actual Time 6:35 AM PST 4:42 PM PST
Civil Twilight 6:08 AM PST 5:09 PM PST
Nautical Twilight 5:38 AM PST 5:40 PM PST
Astronomical Twilight 5:08 AM PST 6:09 PM PST
Moon 8:10 AM PST (12/4) 6:55 PM PST (12/4)
Length of Visible Light 11h 00m
Length of Day
10h 06m
Waxing Crescent, 5% of the Moon is Illuminated
Dec 4
Waxing Crescent
Dec 9
First Quarter
Dec 17
Full
Dec 25
Last Quarter
Jan 1
New

Hourly Weather History & Observations

Time (PST) Temp. Dew Point Humidity Pressure Visibility Wind Dir Wind Speed Gust Speed Precip Events Conditions
12:52 AM 63.0 °F 51.1 °F 65% 29.83 in 10.0 mi West 13.8 mph - N/A   Mostly Cloudy
1:52 AM 63.0 °F 46.9 °F 56% 29.83 in 10.0 mi WNW 15.0 mph - N/A   Overcast
2:52 AM 62.1 °F 44.1 °F 52% 29.84 in 10.0 mi WNW 15.0 mph - N/A   Overcast
3:52 AM 61.0 °F 43.0 °F 52% 29.85 in 10.0 mi West 16.1 mph - N/A   Overcast
4:52 AM 60.1 °F 43.0 °F 53% 29.86 in 10.0 mi West 15.0 mph - N/A   Overcast
5:52 AM 59.0 °F 39.9 °F 49% 29.89 in 10.0 mi West 12.7 mph - N/A   Mostly Cloudy
6:26 AM 59.0 °F 41.0 °F 51% 29.90 in 10.0 mi West 9.2 mph - N/A   Scattered Clouds
6:52 AM 59.0 °F 39.0 °F 48% 29.91 in 10.0 mi WSW 6.9 mph - N/A   Scattered Clouds
7:52 AM 62.1 °F 37.9 °F 41% 29.93 in 10.0 mi West 9.2 mph - N/A   Mostly Cloudy
8:52 AM 64.0 °F 39.9 °F 41% 29.94 in 10.0 mi Variable 6.9 mph - N/A   Mostly Cloudy
9:52 AM 64.9 °F 39.9 °F 40% 29.96 in 10.0 mi West 5.8 mph - N/A   Mostly Cloudy
10:52 AM 66.9 °F 39.9 °F 37% 29.94 in 10.0 mi South 6.9 mph - N/A   Mostly Cloudy
11:52 AM 64.9 °F 41.0 °F 42% 29.93 in 10.0 mi Variable 5.8 mph - N/A   Mostly Cloudy
12:52 PM 66.0 °F 37.0 °F 34% 29.93 in 10.0 mi WNW 11.5 mph 19.6 mph N/A   Mostly Cloudy
1:52 PM 66.0 °F 37.9 °F 36% 29.91 in 10.0 mi Variable 4.6 mph - N/A   Mostly Cloudy
2:52 PM 64.9 °F 41.0 °F 42% 29.91 in 10.0 mi WSW 9.2 mph - N/A   Mostly Cloudy
3:52 PM 64.0 °F 39.9 °F 41% 29.92 in 10.0 mi SW 6.9 mph - N/A   Mostly Cloudy
4:52 PM 61.0 °F 39.0 °F 44% 29.93 in 10.0 mi SW 3.5 mph - N/A   Mostly Cloudy
5:52 PM 60.1 °F 39.9 °F 47% 29.95 in 10.0 mi SSW 8.1 mph - N/A   Mostly Cloudy
6:52 PM 59.0 °F 37.9 °F 46% 29.95 in 10.0 mi SW 5.8 mph - N/A   Mostly Cloudy
7:52 PM 59.0 °F 37.9 °F 46% 29.96 in 10.0 mi SW 3.5 mph - N/A   Scattered Clouds
8:52 PM 57.9 °F 37.0 °F 46% 29.98 in 10.0 mi WSW 8.1 mph - N/A   Scattered Clouds
9:52 PM 60.1 °F 36.0 °F 41% 29.98 in 10.0 mi SW 9.2 mph - N/A   Mostly Cloudy
10:52 PM 60.1 °F 36.0 °F 41% 29.98 in 10.0 mi Calm Calm - N/A   Mostly Cloudy
11:52 PM 59.0 °F 36.0 °F 42% 29.98 in 10.0 mi WSW 11.5 mph - N/A   Mostly Cloudy